This demonstration page uses our WeatherBlox Daily Observations layout. Learn more.

Left ArrowRight Arrow

44.8408, -93.29828

Hourly Observations for March 27, 2020

Temp ( °F °C ) Dew Point ( °F °C ) Humidity (%) Winds ( mph kmh ) Pressure ( in mb ) Visibility ( mi km ) Precip ( " mm )
12:53 am 00:53 Mostly Cloudy 42 5.6 34 1.1 73 73 SSW 7 11 29.90 1013 10 16 0.00 0.00
1:53 am 01:53 Mostly Cloudy 41 5 35 1.7 79 79 Calm 29.89 1012 10 16 0.00 0.00
2:53 am 02:53 Mostly Cloudy 39 3.9 34 1.1 82 82 Calm 29.88 1012 9 14 0.00 0.00
3:53 am 03:53 Mostly Cloudy 40 4.4 34 1.1 79 79 Calm 29.87 1012 8 13 0.00 0.00
4:53 am 04:53 Mostly Cloudy with Haze 40 4.4 35 1.7 83 83 Calm 29.88 1012 6 10 0.00 0.00
5:53 am 05:53 Mostly Cloudy 38 3.3 35 1.7 89 89 SSE 5 7 29.89 1012 8 13 0.00 0.00
6:53 am 06:53 Cloudy 39 3.9 35 1.7 86 86 SE 5 7 29.89 1012 8 13 0.00 0.00
7:32 am 07:32 Mostly Cloudy with Mist and Fog 38 3.3 35 1.7 89 89 Calm 29.92 1013 6 10 0.00 0.00
7:53 am 07:53 Cloudy with Mist and Fog 39 3.9 35 1.7 86 86 Calm 29.91 1013 6 10 0.00 0.00
8:53 am 08:53 Cloudy 41 5 36 2.2 82 82 Calm 29.92 1013 8 13 0.00 0.00
9:53 am 09:53 Cloudy 45 7.2 37 2.8 74 74 S 7 11 29.93 1013 10 16 0.00 0.00
10:53 am 10:53 Mostly Cloudy 50 10 38 3.3 63 63 SE 7 11 29.90 1013 10 16 0.00 0.00
11:53 am 11:53 Partly Cloudy 52 11.1 37 2.8 57 57 undefined N/A 29.91 1013 10 16 0.00 0.00
12:53 pm 12:53 Mostly Cloudy 53 11.7 37 2.8 55 55 undefined N/A 29.89 1012 10 16 0.00 0.00
1:53 pm 13:53 Cloudy 55 12.8 36 2.2 49 49 Calm 29.88 1012 10 16 0.00 0.00
2:53 pm 14:53 Partly Cloudy 56 13.3 36 2.2 47 47 SSE 7 11 29.86 1011 10 16 0.00 0.00
3:53 pm 15:53 Partly Cloudy 58 14.4 35 1.7 42 42 NNE 5 7 29.83 1010 10 16 0.00 0.00
4:53 pm 16:53 Partly Cloudy 59 15 35 1.7 41 41 ESE 7 11 29.82 1010 10 16 0.00 0.00
5:53 pm 17:53 Mostly Cloudy 57 13.9 36 2.2 45 45 E 8 13 29.81 1010 10 16 0.00 0.00
6:53 pm 18:53 Cloudy 55 12.8 37 2.8 51 51 SSE 6 9 29.80 1009 10 16 0.00 0.00
7:53 pm 19:53 Cloudy 55 12.8 37 2.8 51 51 E 9 15 29.80 1009 10 16 0.00 0.00
8:53 pm 20:53 Cloudy 54 12.2 37 2.8 53 53 E 8 13 29.81 1009 10 16 0.00 0.00
9:53 pm 21:53 Cloudy with Light Rain 50 10 41 5 71 71 ENE 7 11 29.82 1010 8 13 0.01 0.25
10:53 pm 22:53 Cloudy 49 9.4 42 5.6 77 77 N 6 9 29.83 1010 10 16 0.01 0.25
11:53 pm 23:53 Cloudy with Light Rain 48 8.9 42 5.6 80 80 NNE 6 9 29.83 1010 10 16 0.00 0.00

Powered by AerisWeather